SB KEPS @ AMSAT $ORB09078.N 2Line Orbital Elements 09078.AMSAT
HR AMSAT ORBITAL ELEMENTS FOR AMATEUR SATELLITES IN NASA FORMAT FROM WA5QGD FORT WORTH,TX March 19, 2009 Send Subscribe/unsubscribe to KEPS at http://www.amsat.org/mailman/listinfo/keps BID: ORB09078.N
DECODE 2-LINE ELSETS WITH THE FOLLOWING KEY: 1 AAAAAU 00 0 0 BBBBB.BBBBBBBB .CCCCCCCC 00000-0 00000-0 0 DDDZ 2 AAAAA EEE.EEEE FFF.FFFF GGGGGGG HHH.HHHH III.IIII JJ.JJJJJJJJKKKKKZ KEY: A-CATALOGNUM B-EPOCHTIME C-DECAY D-ELSETNUM E-INCLINATION F-RAAN G-ECCENTRICITY H-ARGPERIGEE I-MNANOM J-MNMOTION K-ORBITNUM Z-CHECKSUM
TO ALL RADIO AMATEURS BT
AO-07 1 07530U 74089B 09078.46621041 -.00000027 00000-0 10000-3 0 4305 2 07530 101.4361 106.4097 0012073 084.6965 275.5486 12.53575530571478 AO-10 1 14129U 83058B 09078.38876633 -.00000166 00000-0 10000-3 0 6332 2 14129 025.9678 166.1397 5982084 207.0833 102.0602 02.05870136193778 UO-11 1 14781U 84021B 09078.68319606 .00000031 00000-0 11302-4 0 9141 2 14781 098.1178 122.2941 0008004 267.0133 093.0181 14.79699665344591 RS-15 1 23439U 94085A 09077.95783704 -.00000039 00000-0 10000-3 0 02162 2 23439 064.8131 050.7225 0146332 069.0600 292.5909 11.27553296585945 FO-29 1 24278U 96046B 09077.70657082 .00000048 00000-0 87041-4 0 00061 2 24278 098.5666 323.8444 0350051 224.7058 132.5372 13.52942687621510 SO-33 1 25509U 98061B 09077.67828858 -.00000062 00000-0 -26783-4 0 04120 2 25509 031.4343 204.2776 0355404 267.0898 088.8992 14.28245816542882 AO-40 1 26609U 00072B 09074.71118047 -.00000270 00000-0 10000-3 0 2022 2 26609 008.9500 028.2557 7956187 184.9526 154.0854 01.25584144 38455 RS-22 1 27939U 03042A 09077.66468735 -.00000003 00000-0 82520-5 0 7429 2 27939 097.9582 315.7622 0014664 060.0521 300.2139 14.63301118292338 VO-52 1 28650U 05017B 09077.68498125 .00000421 00000-0 59925-4 0 01825 2 28650 097.7508 142.2189 0026495 327.3426 032.6171 14.81564318209247 PO-63 1 29712U 07001D 09078.80469464 .00000546 00000-0 78054-4 0 3250 2 29712 097.8383 137.3132 0013617 201.7564 158.3080 14.80475353118245 AO-16 1 20439U 90005D 09078.47639084 -.00000008 00000-0 12382-4 0 5600 2 20439 098.2696 051.0050 0011908 077.9788 282.2735 14.31818480 317 LO-19 1 20442U 90005G 09077.77951700 -.00000051 00000-0 -37925-5 0 4810 2 20442 098.2333 057.9485 0012923 076.2554 284.0036 14.32054590 372 AO-27 1 22825U 93061C 09077.83767104 .00000011 00000-0 20864-4 0 2019 2 22825 098.4268 034.1522 0008350 164.7041 195.4402 14.29260795807009 IO-26 1 22826U 93061D 09077.84375668 -.00000004 00000-0 15043-4 0 9227 2 22826 098.4205 034.9464 0009068 160.9389 199.2129 14.29511817807107 GO-32 1 25397U 98043D 09078.57252621 -.00000115 00000-0 -32972-4 0 8472 2 25397 098.3351 105.6810 0001802 125.5287 234.6061 14.23155773555385 NO-44 1 26931U 01043C 09078.73215295 .00000054 00000-0 53372-4 0 1240 2 26931 067.0537 294.8053 0005113 260.9985 099.0511 14.29551084389791 SO-50 1 27607U 02058C 09078.74649254 -.00000026 00000-0 18097-4 0 8405 2 27607 064.5599 296.7364 0076256 224.9508 134.5378 14.71420702335511 CO-55 1 27844U 03031E 09077.55907354 .00000024 00000-0 31544-4 0 05378 2 27844 098.7162 087.9978 0010781 048.1029 312.1074 14.20627007296395 CO-57 1 27848U 03031J 09077.52401834 .00000003 00000-0 21616-4 0 4826 2 27848 098.7169 087.0249 0010582 050.1535 310.0550 14.20430551296350 AO-51 1 28375U 04025K 09077.74351323 .00000003 00000-0 13336-4 0 3422 2 28375 098.0562 092.6078 0085180 039.8411 320.8984 14.40635861247934 CO-56 1 28941U 06005C 09078.46271960 .00054268 34216-5 24820-3 0 9135 2 28941 098.1324 236.7995 0110214 109.5013 251.8241 15.75161494173087 CP3 1 31128U 07012M 09077.19062970 -.00000047 00000-0 00000 0 0 5821 2 31128 097.9981 134.4916 0102444 206.6689 152.9233 14.52025982101690 CP4 1 31132U 07012Q 09078.41464424 .00000259 00000-0 67527-4 0 5615 2 31132 098.0052 139.2103 0085134 192.3033 167.6096 14.55191416101977 CO-65 1 32785U 08021C 09077.21424534 .00000367 00000-0 53601-4 0 03184 2 32785 097.9564 141.8947 0014672 331.1911 028.8481 14.81459250047977 NOAA-10 1 16969U 86073A 09078.15141367 -.00000016 00000-0 11676-4 0 5413 2 16969 098.7003 105.2542 0013125 098.7903 261.4745 14.27382041170668 NOAA-11 1 19531U 88089A 09077.76129660 -.00000216 00000-0 -89349-4 0 05536 2 19531 098.7819 169.1150 0011886 010.0514 350.0894 14.14889852056731 NOAA-12 1 21263U 91032A 09077.98759464 .00000012 00000-0 23905-4 0 00586 2 21263 098.7741 086.0016 0013311 050.0137 310.2211 14.25570228927541 MET-3/5 1 21655U 91056A 09077.89795195 .00000051 00000-0 10000-3 0 06319 2 21655 082.5496 270.2881 0014620 048.6734 311.5644 13.17018586845740 MET-2/21 1 22782U 93055A 09077.56961375 .00000024 00000-0 80717-5 0 04087 2 22782 082.5435 253.8869 0021081 239.3607 120.5485 13.83633936785070 OKEAN-4 1 23317U 94066A 09078.47753210 .00000196 00000-0 21325-4 0 8570 2 23317 082.5368 058.1980 0020926 303.7271 056.1953 14.82681669779073 NOAA-14 1 23455U 94089A 09077.79400439 -.00000287 00000-0 -12834-3 0 05512 2 23455 098.9130 155.7729 0010346 088.3369 271.8987 14.13757953733154 NOAA-15 1 25338U 98030A 09077.81088130 -.00000082 00000-0 -16805-4 0 08572 2 25338 098.5808 069.0245 0010142 326.6373 033.4166 14.24749001563903 RESURS 1 25394U 98043A 09078.65416023 -.00000033 00000-0 36548-5 0 1684 2 25394 098.3521 115.5181 0002206 095.2869 264.8561 14.24180704555653 FENGYUN1 1 25730U 99025A 09077.95907590 .00000603 00000-0 37934-3 0 07489 2 25730 098.7497 050.8426 0022868 111.7909 248.5696 14.07947013507628 OKEAN-0 1 25860U 99039A 09078.47084335 .00000015 00000-0 95844-5 0 6278 2 25860 097.7793 063.2543 0001750 084.3896 275.7527 14.73562796519931 NOAA-16 1 26536U 00055A 09077.83648341 .00000231 00000-0 15024-3 0 03313 2 26536 099.1772 079.3205 0010694 170.7733 189.3626 14.12513683437545 NOAA-17 1 27453U 02032A 09077.78445689 .00000044 00000-0 37413-4 0 03402 2 27453 098.4936 139.9286 0012068 032.8279 327.3650 14.24048554349883 NOAA-18 1 28654U 05018A 09077.79344072 -.00000064 00000-0 -10949-4 0 08301 2 28654 098.8996 021.7689 0013400 258.7238 101.2434 14.11241592197206 NOAA-19 1 33591U 09005A 09077.82500159 .00000328 00000-0 20648-3 0 00401 2 33591 098.7380 025.9764 0014669 136.8173 223.4135 14.10944167005693 HUBBLE 1 20580U 90037B 09078.79080150 .00000375 00000-0 16192-4 0 3518 2 20580 028.4693 325.5652 0003794 065.3324 294.7653 15.00464984836412 PO-34 1 25520U 98064B 09077.55380501 .00000541 00000-0 16763-4 0 2070 2 25520 028.4592 141.7648 0005091 037.6351 322.4604 15.17310412574874 ISS 1 25544U 98067A 09077.82043242 -.00000485 00000-0 10370-5 0 04885 2 25544 051.6415 049.9373 0009630 134.8683 313.1253 15.71465406591732 CO-58 1 28895U 05043F 09077.72152952 .00000044 00000-0 18869-4 0 2593 2 28895 098.0707 330.8180 0016734 272.2692 087.6612 14.59749892180534 FALCON 1 30776U 07006E 09077.90373943 .00000372 00000-0 30048-4 0 05376 2 30776 035.4339 287.1573 0001492 263.5448 096.5099 15.03191530111507 MAST 1 31126U 07012K 09077.64679068 .00000016 00000-0 14276-4 0 05528 2 31126 097.9996 136.5547 0094605 200.2757 159.4660 14.53483918101887 CAPE1 1 31130U 07012P 09077.80265533 .00000198 00000-0 56616-4 0 05603 2 31130 098.0027 135.0893 0102522 204.5555 155.0737 14.52041099101570 COMPASS 1 32787U 08021E 09077.19806277 .00000286 00000-0 43272-4 0 03139 2 32787 097.9532 141.7546 0015122 332.1306 027.9092 14.81563023047970 AAUSAT2 1 32788U 08021F 09077.44354801 .00000013 00000-0 84726-5 0 03092 2 32788 097.9538 142.0445 0015102 333.2121 026.8264 14.81682894048017 DO-64 1 32789U 08021G 09077.73357433 .00000294 00000-0 44150-4 0 3175 2 32789 097.9573 142.4401 0015188 329.7245 030.3086 14.81639431 48059 CO-66 1 32791U 08021J 09078.17628724 .00000103 00000-0 20069-4 0 3005 2 32791 097.9557 142.7576 0015506 327.1718 032.8528 14.81400818 48087 RS-30 1 32953U 08025A 09077.71937032 .00000010 00000-0 00000-0 0 02592 2 32953 082.5033 312.8830 0019818 018.3547 341.8244 12.43000083037158 /EX